Showing default

SATELIOT_3, 60552

Orbit data source: Space-Track

SATELIOT_3, 60552 is a payload satellite owned by Sateliot (ES) in SSO that was launched on Fri, 16 Aug 2024 UTC via an FALCON 9 launch vehicle from the Air Force Western Test Range (AFWTR). Payload-class satellites include a variety of spacecraft equipped with specific instruments for various scientific and technological missions. These include communications satellites like Starlink; space stations such as the ISS; scientific satellites like the Hubble; Earth observation satellites from companies like Planet Labs, Umbra, and HawkEye 360; GPS; miniature CubeSats for education and research; and military/defense satellites.

Loading next visibility...
Identifier
60552, 2024-149CN
Orbit
SSO
Country
Flag of ESES / SPN
Related business
Manufacturer
Endurosat
Mission
Operational Commercial Communications
Bus & Motor
CUBESAT 6U, Unknown motor
Mass
7.407 kg wet, 7.407 kg dry
Launch date (UTC)
2024-08-16 (1 year ago)
Launch vehicle
FALCON 9
Launch site
Air Force Western Test Range (AFWTR)
Object type
Payload
Rocket body
Debris
Shape & HBR
Box + 2 Pan, 0.2 m
Radar Cross Section
0.092 m², Medium (>0.1 m² and < 1m²)

Expand to show TLE details & history
Last TLE update: 6 hours ago

TLE from 6 hours ago
0 SATELIOT_3
1 60552U 24149CN  25289.57287232  .00004371  00000-0  38739-3 0  9998
2 60552  97.7079   4.9971 0005818 167.3694 192.7675 14.96731013 63626
Epoch: 2025-10-16T13:44Z
TLE epoch observation values (Epoch: 2025-10-16T13:44:56.168Z)
Latitude
0.00003°
Longitude
133.4324°
Altitude
584.002 km
Speed
7.566 km/s
True Right ascension
00h 19m 59s
True Declination
0° 00' 00"
Sunlit
Object was in full shadow at epoch
Visualization orbit readout
Latitude
Unknown
Longitude
Unknown
Altitude
Unknown
Speed
Unknown
Apparent Right ascension
Unknown
Apparent Declination
Unknown
Sunlit
N/A
Visualization observer readout
Local Sidereal Time
14:42:01
Azimuth
Unknown
Elevation
Unknown
Doppler factor
Unknown
Orbital elements
Apogee altitude
578.06 km
Perigee altitude
569.97 km
Semi-major axis
6,952.152 km
Eccentricity
0.00058
Inclination
97.7079°
RAAN
4.9971°
Arg. of periapsis
167.3694°
True anomaly
192.75278°
Mean anomaly
192.7675°
Eccentric anomaly
192.76014°
Mean motion
3.74425 °/min
Orbital period
96.15 mins
BSTAR
0.00038739
Loading maneuver chart data...
Computing Atmospheric mass density...
Loading historical data...
Loading historical data...
Loading historical data...
Loading historical data...
Loading historical data...
Loading historical data...
Loading historical data...

Documentation

Showing up to 5 results
|